When you browse on this site, cookies collect data to enhance your experience and personalize the content and advertising you see.
Visit our Privacy Policy to learn more. By continuing to use the site, you agree to this use of cookies and data.

Hourly Weather Golden Sands

Today, 9 July, Thursday

Time Temperature Precipitation Wind Pressure Humidity
00:00 +19°C° 0 mm 4 mps 762 mmHg 68%
01:00 +19°C° 0 mm 4 mps 763 mmHg 69%
02:00 +19°C° 0 mm 4 mps 763 mmHg 69%
03:00 +18°C° 0 mm 4 mps 763 mmHg 70%
04:00 +18°C° 0 mm 4 mps 763 mmHg 70%
05:00 +18°C° 0 mm 4 mps 763 mmHg 71%
06:00 +20°C° 0 mm 4 mps 763 mmHg 65%
07:00 +22°C° 0 mm 3 mps 763 mmHg 58%
08:00 +24°C° 0 mm 3 mps 763 mmHg 52%
09:00 +25°C° 0 mm 3 mps 763 mmHg 49%
10:00 +26°C° 0 mm 3 mps 763 mmHg 47%
11:00 +27°C° 0 mm 3 mps 763 mmHg 44%
12:00 +27°C° 0 mm 3 mps 763 mmHg 45%
13:00 +28°C° 0 mm 3 mps 763 mmHg 46%
14:00 +28°C° 0 mm 3 mps 763 mmHg 46%
15:00 +27°C° 0 mm 4 mps 763 mmHg 49%
16:00 +27°C° 0 mm 4 mps 763 mmHg 51%
17:00 +26°C° 0 mm 4 mps 762 mmHg 53%
18:00 +25°C° 0 mm 4 mps 762 mmHg 57%
19:00 +24°C° 0 mm 3 mps 762 mmHg 61%
20:00 +22°C° 0 mm 3 mps 763 mmHg 65%
21:00 +21°C° 0 mm 3 mps 763 mmHg 67%
22:00 +21°C° 0 mm 2 mps 763 mmHg 69%
23:00 +21°C° 0 mm 2 mps 763 mmHg 71%

Tomorrow, 10 July, Friday

Time Temperature Precipitation Wind Pressure Humidity
00:00 +20°C° 0 mm 2 mps 763 mmHg 72%
01:00 +20°C° 0 mm 2 mps 763 mmHg 74%
02:00 +20°C° 0 mm 2 mps 763 mmHg 75%
03:00 +20°C° 0 mm 3 mps 763 mmHg 76%
04:00 +20°C° 0 mm 3 mps 763 mmHg 76%
05:00 +20°C° 0 mm 4 mps 763 mmHg 77%
06:00 +21°C° 0 mm 5 mps 763 mmHg 71%
07:00 +23°C° 0 mm 5 mps 763 mmHg 65%
08:00 +26°C° 0 mm 6 mps 763 mmHg 59%
09:00 +27°C° 0 mm 5 mps 763 mmHg 56%
10:00 +27°C° 0 mm 5 mps 763 mmHg 53%
11:00 +28°C° 0 mm 5 mps 763 mmHg 50%
12:00 +28°C° 0 mm 5 mps 763 mmHg 51%
13:00 +29°C° 0 mm 6 mps 763 mmHg 52%
14:00 +29°C° 0 mm 6 mps 762 mmHg 53%
15:00 +28°C° 0 mm 6 mps 762 mmHg 53%
16:00 +28°C° 0 mm 6 mps 762 mmHg 54%
17:00 +27°C° 0 mm 6 mps 762 mmHg 55%
18:00 +26°C° 0 mm 6 mps 762 mmHg 60%
19:00 +24°C° 0 mm 6 mps 762 mmHg 65%
20:00 +23°C° 0 mm 6 mps 762 mmHg 70%
21:00 +22°C° 0 mm 6 mps 762 mmHg 72%
22:00 +22°C° 0 mm 6 mps 762 mmHg 74%
23:00 +22°C° 0 mm 6 mps 762 mmHg 76%

Day after tomorrow, 11 July, Saturday

Time Temperature Precipitation Wind Pressure Humidity
00:00 +22°C° 0 mm 6 mps 762 mmHg 78%
01:00 +22°C° 0 mm 5 mps 762 mmHg 79%
02:00 +21°C° 0 mm 5 mps 762 mmHg 80%
03:00 +21°C° 0 mm 5 mps 761 mmHg 81%
04:00 +21°C° 0 mm 5 mps 761 mmHg 82%
05:00 +21°C° 0 mm 5 mps 761 mmHg 82%
06:00 +23°C° 0 mm 5 mps 761 mmHg 76%
07:00 +24°C° 0 mm 6 mps 761 mmHg 69%
08:00 +27°C° 0 mm 6 mps 761 mmHg 63%
09:00 +28°C° 0 mm 6 mps 761 mmHg 60%
10:00 +28°C° 0 mm 6 mps 761 mmHg 58%
11:00 +29°C° 0 mm 6 mps 761 mmHg 55%
12:00 +29°C° 0 mm 7 mps 761 mmHg 55%
13:00 +29°C° 0 mm 7 mps 761 mmHg 55%
14:00 +29°C° 0 mm 7 mps 760 mmHg 56%
15:00 +28°C° 0 mm 7 mps 760 mmHg 57%
16:00 +28°C° 0 mm 7 mps 760 mmHg 58%
17:00 +28°C° 0 mm 6 mps 760 mmHg 59%
18:00 +26°C° 0 mm 6 mps 760 mmHg 64%
19:00 +25°C° 0 mm 5 mps 760 mmHg 69%
20:00 +23°C° 0 mm 5 mps 759 mmHg 74%
21:00 +22°C° 0 mm 5 mps 759 mmHg 76%
22:00 +21°C° 0 mm 4 mps 759 mmHg 78%
23:00 +21°C° 0 mm 4 mps 759 mmHg 79%

12 July, Sunday

Time Temperature Precipitation Wind Pressure Humidity
00:00 +20°C° 0 mm 4 mps 759 mmHg 80%
01:00 +20°C° 0 mm 3 mps 759 mmHg 81%
02:00 +20°C° 0 mm 3 mps 758 mmHg 82%
03:00 +19°C° 0 mm 3 mps 758 mmHg 83%
04:00 +19°C° 0 mm 4 mps 758 mmHg 84%
05:00 +19°C° 0 mm 4 mps 758 mmHg 84%
06:00 +21°C° 0 mm 4 mps 758 mmHg 77%
07:00 +23°C° 0 mm 4 mps 758 mmHg 69%
08:00 +26°C° 0 mm 4 mps 758 mmHg 61%
09:00 +27°C° 0 mm 4 mps 758 mmHg 57%
10:00 +28°C° 0 mm 4 mps 759 mmHg 53%
11:00 +29°C° 0 mm 3 mps 759 mmHg 49%
12:00 +30°C° 0 mm 4 mps 758 mmHg 49%
13:00 +30°C° 0 mm 4 mps 758 mmHg 48%
14:00 +32°C° 0 mm 5 mps 758 mmHg 48%
15:00 +30°C° 0 mm 5 mps 758 mmHg 50%
16:00 +29°C° 0 mm 5 mps 758 mmHg 53%
17:00 +29°C° 0 mm 5 mps 757 mmHg 55%
18:00 +27°C° 0 mm 4 mps 757 mmHg 63%
19:00 +26°C° 0 mm 3 mps 757 mmHg 71%
20:00 +24°C° 0 mm 2 mps 757 mmHg 78%
21:00 +24°C° 0 mm 2 mps 757 mmHg 78%
22:00 +23°C° 0 mm 2 mps 758 mmHg 78%
23:00 +23°C° 0 mm 2 mps 758 mmHg 78%

13 July, Monday

Time Temperature Precipitation Wind Pressure Humidity
00:00 +22°C° 0 mm 4 mps 758 mmHg 77%
01:00 +22°C° 0 mm 6 mps 758 mmHg 75%
02:00 +22°C° 0 mm 8 mps 757 mmHg 74%
03:00 +21°C° 0 mm 8 mps 758 mmHg 77%
04:00 +19°C° 0 mm 9 mps 758 mmHg 79%
05:00 +17°C° 0 mm 10 mps 758 mmHg 82%
06:00 +18°C° 0 mm 9 mps 758 mmHg 78%
07:00 +20°C° 0 mm 8 mps 758 mmHg 75%
08:00 +20°C° 0 mm 8 mps 758 mmHg 71%
09:00 +21°C° 0 mm 8 mps 759 mmHg 68%
10:00 +23°C° 0 mm 7 mps 759 mmHg 64%
11:00 +24°C° 0 mm 7 mps 759 mmHg 60%
12:00 +24°C° 0 mm 7 mps 759 mmHg 59%
13:00 +26°C° 0 mm 8 mps 759 mmHg 59%
14:00 +26°C° 0 mm 8 mps 759 mmHg 58%
15:00 +24°C° 0 mm 8 mps 759 mmHg 59%
16:00 +23°C° 0 mm 8 mps 759 mmHg 61%
17:00 +23°C° 0 mm 8 mps 759 mmHg 63%
18:00 +22°C° 0 mm 8 mps 759 mmHg 62%
19:00 +22°C° 0 mm 7 mps 759 mmHg 62%
20:00 +21°C° 0 mm 7 mps 760 mmHg 62%
21:00 +21°C° 0 mm 7 mps 760 mmHg 61%
22:00 +21°C° 0 mm 8 mps 760 mmHg 60%
23:00 +21°C° 0 mm 8 mps 760 mmHg 60%

14 July, Tuesday

Time Temperature Precipitation Wind Pressure Humidity
00:00 +20°C° 0 mm 8 mps 760 mmHg 61%
01:00 +20°C° 0 mm 8 mps 760 mmHg 63%
02:00 +18°C° 0 mm 8 mps 760 mmHg 65%
03:00 +17°C° 0 mm 8 mps 760 mmHg 69%
04:00 +16°C° 0 mm 8 mps 761 mmHg 73%
05:00 +15°C° 0 mm 8 mps 761 mmHg 77%
06:00 +17°C° 0 mm 8 mps 761 mmHg 71%
07:00 +20°C° 0 mm 7 mps 761 mmHg 65%
08:00 +21°C° 0 mm 7 mps 761 mmHg 59%
09:00 +23°C° 0 mm 7 mps 762 mmHg 54%
10:00 +24°C° 0 mm 7 mps 762 mmHg 49%
11:00 +26°C° 0 mm 7 mps 762 mmHg 45%
12:00 +26°C° 0 mm 7 mps 762 mmHg 45%
13:00 +27°C° 0 mm 7 mps 762 mmHg 45%
14:00 +27°C° 0 mm 7 mps 761 mmHg 45%
15:00 +26°C° 0 mm 7 mps 761 mmHg 46%
16:00 +26°C° 0 mm 7 mps 761 mmHg 47%
17:00 +26°C° 0 mm 7 mps 761 mmHg 48%
18:00 +23°C° 0 mm 6 mps 761 mmHg 53%
19:00 +22°C° 0 mm 5 mps 761 mmHg 58%
20:00 +20°C° 0 mm 4 mps 761 mmHg 62%
21:00 +20°C° 0 mm 4 mps 762 mmHg 64%
22:00 +19°C° 0 mm 4 mps 762 mmHg 66%
23:00 +19°C° 0 mm 3 mps 762 mmHg 69%
Show more